Wind_Speed
12 11 10 8 7 6 5 5 4 3 2 2 3 4 5 7 8 10 11 12 13 14 15 15 15 15 15 14 13 13 12 12 11 10 9 8 8 8 7 7 6 5 5
12 11 10 9 8 7 6 5 5 3 3 2 3 3 4 6 7 9 10 11 12 12 13 14 14 15 14 14 13 13 13 12 11 11 10 9 8 8 7 6 5 5 4
13 11 10 9 9 8 7 6 6 4 3 3 2 2 3 5 6 8 9 10 10 11 12 13 14 14 14 13 12 12 11 11 10 10 10 9 9 8 7 6 5 5 4
13 11 10 9 9 9 8 7 6 5 4 3 2 2 2 3 5 6 7 8 9 10 11 12 12 13 13 12 12 11 11 10 10 9 9 8 7 7 7 6 5 5 4
13 12 11 10 9 9 8 8 7 5 4 3 2 1 1 2 3 4 6 7 8 8 9 10 11 12 12 11 11 11 10 10 9 8 7 7 6 6 6 6 6 5 4
12 12 12 11 10 10 9 9 8 7 5 4 3 2 1 1 2 3 4 5 6 7 7 8 10 10 10 10 10 10 10 9 8 7 6 6 6 6 5 4 4 3 3
13 13 12 12 11 10 10 9 9 8 6 5 4 3 2 1 0 1 3 4 5 5 6 7 8 9 9 9 9 9 10 9 8 7 7 6 6 5 5 4 3 2 1
13 14 14 13 12 11 10 10 9 8 7 6 5 4 3 2 1 0 1 2 3 4 4 5 6 7 8 8 9 9 9 8 8 7 7 6 5 4 4 3 3 2 1
13 14 14 13 13 12 12 11 10 9 8 7 6 4 4 3 2 1 0 1 2 3 3 4 5 6 7 7 7 8 8 8 8 7 6 5 5 4 4 4 4 3 3
14 14 14 14 14 14 13 12 11 10 9 8 7 6 5 4 4 3 2 1 2 2 3 3 4 5 5 6 6 7 7 7 7 7 6 5 5 5 5 5 5 5 4
14 15 15 15 14 14 13 13 12 11 10 9 8 7 6 6 6 5 4 3 3 3 3 4 4 5 5 5 6 6 6 6 6 6 6 6 5 6 6 6 6 6 6
15 15 16 15 15 14 14 13 13 12 11 10 9 8 8 7 7 7 6 5 5 5 5 5 5 5 6 6 6 6 6 6 6 6 7 7 7 7 7 8 8 8 8
15 16 16 16 15 15 14 13 13 13 12 11 10 10 9 9 9 9 8 7 7 7 6 7 7 7 7 7 7 7 7 7 8 8 8 8 8 9 9 10 10 10 10
16 17 17 17 17 17 16 15 14 14 13 12 11 11 11 10 10 10 9 9 8 8 8 8 8 8 8 8 8 9 9 9 9 9 10 10 10 11 11 12 12 12 13
15 16 17 17 17 17 17 16 15 14 14 14 13 12 12 11 11 11 11 11 11 10 10 9 10 10 10 10 10 10 11 11 11 11 11 12 13 13 14 14 15 15 16
14 15 16 17 17 17 17 16 16 15 15 15 15 14 14 13 13 13 13 13 13 13 12 12 12 12 12 12 12 12 13 13 13 13 14 14 15 15 16 16 17 17 18
13 14 15 17 18 17 18 17 17 17 17 16 16 16 15 15 15 15 15 15 15 15 15 15 15 14 14 14 14 14 14 15 16 16 16 17 17 18 18 18 19 19 20
14 15 15 16 17 18 18 18 18 18 18 18 18 18 18 17 17 17 17 17 17 17 17 17 16 16 16 16 16 16 17 17 18 18 18 19 19 20 20 21 21 22 23
15 15 16 16 17 18 18 18 18 18 19 19 19 20 20 20 20 19 19 19 18 19 19 18 18 18 18 18 19 19 19 19 20 20 21 22 22 23 23 24 24 25 26
15 15 16 16 17 18 19 19 19 19 19 20 21 21 22 22 21 21 21 21 20 21 21 20 20 20 20 21 21 21 21 22 22 23 23 24 25 26 26 27 28 28 29
15 15 15 15 16 17 18 18 19 20 20 21 21 21 22 22 22 23 23 23 23 23 23 22 22 23 23 23 23 23 24 24 25 25 26 27 28 29 29 30 31 32 32
16 16 15 16 16 17 18 19 20 21 22 22 22 22 22 22 23 23 24 24 24 25 25 25 25 25 25 26 26 26 27 27 27 28 29 30 31 31 32 33 34 35 36
17 17 17 18 18 19 19 20 21 22 22 22 22 23 23 24 24 24 25 25 25 26 26 27 27 27 28 28 29 29 29 30 30 31 32 33 34 34 35 36 37 38 39
18 18 19 19 19 20 21 22 22 23 23 23 23 23 24 25 25 26 27 27 28 28 28 28 29 30 31 31 32 32 33 33 33 34 35 36 37 38 39 39 40 41 41
19 19 20 20 21 21 22 23 24 24 24 24 25 25 26 26 27 28 28 29 30 30 31 31 31 32 33 33 34 34 35 35 36 37 38 39 39 40 41 42 43 43 44
21 21 22 22 23 23 24 24 25 25 25 26 26 27 27 27 28 29 30 30 31 32 32 33 34 34 35 35 35 36 37 38 38 39 40 41 42 43 44 45 45 45 46
Wind_Direction
208 200 197 196 194 190 184 176 168 153 126 96 82 68 61 52 45 43 41 43 43 43 42 43 46 47 50 53 56 61 65 70 78 86 95 103 110 117 121 126 131 139 142
205 201 200 200 195 193 190 182 176 166 153 124 101 82 68 55 46 43 45 44 43 42 43 45 46 48 51 54 57 61 64 68 75 83 91 99 104 111 118 125 130 133 135
209 204 202 205 202 196 192 187 182 173 163 148 128 101 77 59 49 47 47 46 44 44 46 47 47 48 51 54 57 60 60 62 67 79 90 97 97 102 103 107 115 126 131
209 205 203 203 199 196 195 191 187 180 170 162 147 126 84 62 56 51 49 48 46 47 47 48 48 48 48 52 54 56 56 56 64 75 88 94 97 98 99 100 102 110 117
205 204 205 203 201 201 202 195 193 189 182 182 182 173 122 77 61 55 53 51 49 47 48 47 47 47 48 50 52 52 51 56 62 70 81 86 91 94 99 96 95 98 97
208 207 203 206 204 204 204 201 201 200 198 198 198 192 171 114 69 58 51 48 47 46 47 44 43 44 45 46 47 48 48 52 57 63 69 75 78 77 81 85 92 94 90
215 209 204 206 207 205 205 202 203 205 205 203 200 202 200 193 112 55 44 41 43 45 45 42 40 40 40 38 39 40 42 49 54 57 61 63 66 66 60 54 57 67 85
213 210 206 209 209 206 205 204 204 206 207 205 203 211 216 216 217 225 36 33 34 34 35 34 33 34 34 34 34 35 37 43 46 51 54 55 55 51 46 26 4 337 316
216 213 211 213 212 209 207 208 209 210 212 212 214 217 218 220 226 232 304 1 8 13 13 15 18 21 22 23 27 29 33 37 38 39 39 33 27 19 10 354 339 323 305
218 217 217 217 215 212 210 211 211 213 218 219 221 225 225 227 231 235 248 295 325 341 345 350 358 0 2 7 12 17 23 23 24 24 21 15 4 357 348 340 326 316 303
219 218 217 219 220 217 216 216 214 218 221 225 226 226 231 236 238 243 249 266 285 296 308 317 326 334 337 341 347 357 4 4 6 8 7 360 349 343 337 334 329 317 305
221 219 218 218 219 217 217 216 218 221 225 226 224 228 235 241 245 248 251 261 273 282 293 300 305 311 315 318 322 328 335 339 340 341 343 342 337 333 331 330 322 314 306
223 223 222 221 217 217 217 218 220 222 226 228 228 232 238 243 247 250 253 259 267 276 285 293 295 298 303 307 309 314 319 321 321 320 322 323 326 329 326 325 319 313 307
228 227 225 224 220 219 218 218 221 224 228 231 232 235 239 243 247 251 256 260 265 272 278 283 288 292 296 299 301 304 309 309 311 311 313 315 315 318 317 319 317 311 308
228 226 225 224 223 223 222 222 224 228 231 233 236 239 243 246 250 254 258 262 265 269 273 279 284 288 292 295 295 297 299 300 302 304 306 307 309 310 310 311 312 310 306
230 228 225 225 225 224 224 226 230 232 234 236 239 243 248 250 252 255 260 263 265 268 271 276 280 283 287 289 290 292 295 296 298 300 301 303 305 305 305 307 307 307 306
230 228 226 226 227 227 228 230 234 236 237 240 242 247 250 253 256 258 262 264 266 269 272 275 278 280 282 284 287 290 294 295 296 298 298 300 301 302 302 303 304 305 304
229 229 229 230 229 231 232 235 237 241 241 243 246 248 253 256 258 260 262 264 267 269 272 275 277 278 279 281 284 288 292 293 294 296 297 298 300 301 302 302 302 302 303
228 228 230 233 235 237 238 239 241 244 245 247 249 252 254 257 260 261 263 265 267 269 271 274 277 278 279 280 283 286 289 291 293 294 295 297 299 299 299 300 300 301 301
233 232 234 238 239 240 243 243 245 247 249 251 253 254 256 258 260 263 264 264 266 268 271 273 276 278 279 280 282 284 286 288 291 292 293 295 296 298 298 298 299 299 300
237 239 242 244 244 244 244 246 249 250 254 254 257 259 259 260 261 264 265 264 266 268 270 272 274 276 278 280 281 283 285 287 289 291 292 293 295 297 297 298 297 297 298
243 245 247 248 249 249 250 252 252 253 255 257 260 262 263 263 263 265 265 266 268 269 271 273 274 276 278 279 281 282 284 286 288 290 291 292 294 296 296 296 296 296 296
248 250 251 253 255 256 257 257 256 256 257 260 263 264 265 267 267 267 268 268 268 270 271 272 274 276 278 280 281 282 284 286 288 290 292 293 294 295 295 295 296 296 296
253 254 254 256 257 258 258 258 258 258 259 262 265 266 267 268 268 269 269 270 270 272 273 273 275 277 278 279 280 281 283 285 288 289 292 294 295 295 295 295 295 296 296
258 258 259 259 259 259 260 259 260 261 262 264 266 267 267 268 269 270 271 271 272 274 275 276 276 277 279 279 280 281 283 285 287 289 291 293 294 294 294 295 295 296 296
258 260 261 263 264 263 263 262 263 264 265 266 267 268 268 268 270 272 272 273 274 275 277 278 278 278 279 280 281 283 284 286 288 290 292 293 294 294 294 295 295 295 296
Height
5880 5881 5883 5885 5886 5887 5888 5889 5889 5890 5890 5890 5890 5889 5889 5888 5887 5885 5883 5881 5879 5877 5875 5873 5870 5868 5867 5865 5863 5862 5861 5861 5860 5861 5861 5862 5863 5864 5865 5866 5867 5868 5869
5879 5880 5882 5884 5885 5886 5887 5888 5889 5890 5890 5890 5890 5890 5889 5889 5887 5886 5884 5883 5881 5879 5877 5875 5873 5871 5869 5867 5866 5865 5864 5863 5863 5863 5863 5863 5865 5865 5866 5867 5868 5869 5869
5877 5879 5880 5882 5884 5885 5887 5887 5889 5889 5890 5890 5890 5890 5890 5889 5888 5887 5885 5884 5883 5881 5879 5877 5875 5874 5872 5870 5869 5868 5866 5865 5864 5864 5864 5865 5865 5866 5867 5867 5868 5869 5870
5875 5877 5879 5881 5883 5884 5885 5887 5888 5889 5889 5890 5890 5890 5890 5889 5889 5888 5887 5885 5884 5883 5881 5879 5878 5876 5874 5872 5871 5870 5868 5867 5866 5865 5865 5866 5867 5868 5869 5869 5869 5870 5871
5874 5876 5878 5880 5881 5883 5884 5886 5887 5888 5889 5890 5890 5890 5890 5890 5889 5889 5888 5887 5886 5884 5883 5881 5880 5878 5876 5875 5873 5872 5870 5868 5867 5867 5867 5867 5868 5869 5870 5870 5871 5871 5871
5872 5874 5876 5878 5880 5882 5883 5885 5886 5887 5888 5889 5889 5890 5890 5890 5890 5889 5888 5888 5887 5886 5884 5883 5882 5880 5878 5877 5875 5874 5872 5870 5869 5868 5868 5869 5869 5870 5871 5871 5871 5872 5872
5871 5873 5875 5877 5879 5880 5882 5883 5885 5886 5887 5888 5889 5889 5890 5890 5890 5889 5889 5888 5887 5887 5886 5884 5883 5882 5880 5879 5877 5876 5874 5872 5870 5870 5870 5870 5870 5871 5871 5871 5872 5872 5872
5870 5872 5874 5875 5877 5879 5881 5883 5884 5885 5886 5887 5888 5889 5889 5889 5889 5889 5889 5888 5888 5887 5886 5885 5884 5883 5882 5880 5879 5877 5876 5874 5872 5872 5871 5872 5872 5872 5872 5872 5871 5871 5871
5868 5870 5872 5874 5876 5878 5879 5881 5883 5884 5885 5886 5887 5888 5888 5889 5889 5889 5889 5889 5888 5887 5887 5886 5885 5884 5883 5882 5880 5879 5877 5876 5874 5874 5873 5873 5873 5872 5872 5871 5871 5870 5870
5866 5868 5870 5872 5874 5876 5877 5879 5881 5883 5884 5885 5886 5887 5887 5888 5888 5888 5888 5888 5888 5887 5887 5886 5885 5884 5883 5882 5881 5880 5879 5877 5876 5875 5874 5873 5873 5872 5871 5870 5869 5868 5868
5864 5866 5868 5870 5872 5873 5875 5877 5879 5881 5882 5883 5884 5885 5886 5887 5887 5887 5887 5887 5887 5887 5886 5886 5885 5884 5883 5882 5881 5880 5879 5878 5877 5875 5874 5874 5873 5872 5870 5869 5868 5867 5866
5861 5863 5865 5867 5869 5871 5873 5875 5877 5878 5880 5881 5882 5883 5884 5885 5885 5886 5886 5886 5886 5886 5885 5885 5884 5883 5883 5882 5881 5880 5879 5878 5877 5875 5874 5873 5872 5871 5869 5868 5866 5865 5865
5858 5860 5862 5864 5866 5869 5871 5873 5874 5876 5878 5879 5880 5881 5882 5883 5883 5884 5884 5884 5884 5884 5884 5883 5883 5882 5881 5881 5880 5879 5878 5877 5876 5875 5873 5872 5871 5869 5868 5866 5865 5864 5863
5855 5857 5859 5861 5864 5866 5868 5870 5872 5873 5875 5876 5878 5879 5880 5880 5881 5882 5882 5882 5882 5882 5882 5881 5881 5880 5880 5879 5878 5877 5876 5875 5874 5873 5872 5871 5869 5868 5866 5864 5863 5861 5860
5852 5854 5856 5858 5861 5863 5865 5867 5869 5870 5872 5874 5875 5876 5877 5878 5878 5879 5879 5880 5880 5879 5879 5879 5879 5878 5877 5877 5876 5875 5874 5873 5872 5871 5870 5868 5867 5865 5863 5862 5860 5858 5856
5849 5851 5853 5855 5857 5860 5862 5864 5866 5867 5869 5870 5872 5873 5874 5875 5875 5876 5876 5877 5877 5877 5876 5876 5876 5875 5874 5874 5873 5872 5871 5870 5869 5868 5867 5865 5864 5862 5860 5858 5856 5854 5852
5846 5848 5850 5852 5854 5856 5858 5861 5862 5864 5865 5867 5868 5869 5870 5871 5872 5872 5873 5873 5873 5873 5873 5873 5872 5872 5871 5870 5870 5869 5868 5867 5866 5865 5863 5862 5860 5858 5856 5854 5852 5850 5848
5843 5845 5847 5849 5851 5853 5855 5857 5858 5860 5862 5863 5864 5865 5866 5867 5868 5868 5869 5869 5869 5869 5869 5869 5868 5868 5867 5866 5866 5865 5864 5863 5861 5860 5859 5857 5855 5854 5852 5850 5848 5845 5843
5840 5842 5844 5845 5847 5849 5851 5853 5855 5856 5858 5859 5860 5861 5862 5863 5863 5864 5864 5864 5865 5865 5864 5864 5864 5863 5863 5862 5861 5860 5859 5858 5857 5855 5854 5852 5850 5848 5846 5844 5842 5840 5837
5837 5839 5840 5842 5843 5845 5847 5849 5850 5852 5853 5854 5855 5856 5857 5858 5858 5859 5859 5859 5859 5860 5859 5859 5859 5858 5858 5857 5856 5855 5854 5853 5851 5850 5848 5846 5844 5842 5840 5838 5836 5833 5830
5834 5835 5837 5838 5839 5841 5843 5844 5845 5847 5848 5849 5850 5850 5851 5852 5853 5853 5853 5854 5854 5854 5854 5853 5853 5853 5852 5851 5850 5849 5848 5847 5845 5843 5841 5839 5837 5835 5833 5830 5828 5825 5822
5831 5832 5833 5834 5835 5837 5838 5839 5840 5841 5842 5843 5844 5845 5845 5846 5846 5847 5847 5847 5847 5847 5847 5847 5847 5846 5845 5844 5843 5842 5841 5839 5838 5836 5834 5832 5829 5827 5824 5822 5819 5816 5813
5826 5828 5829 5830 5831 5832 5833 5834 5835 5835 5837 5838 5838 5839 5839 5840 5840 5840 5840 5840 5840 5840 5840 5840 5839 5839 5838 5837 5836 5834 5833 5831 5830 5828 5825 5823 5821 5818 5815 5812 5809 5806 5803
5822 5823 5824 5825 5826 5827 5828 5828 5829 5830 5831 5832 5832 5832 5833 5833 5833 5833 5833 5833 5833 5833 5832 5832 5831 5831 5830 5828 5827 5826 5824 5823 5821 5818 5816 5814 5811 5808 5805 5802 5798 5795 5791
5817 5818 5819 5820 5820 5821 5822 5822 5823 5824 5824 5825 5825 5825 5825 5826 5826 5826 5826 5825 5825 5825 5824 5823 5823 5822 5821 5819 5818 5816 5815 5813 5811 5808 5806 5804 5801 5797 5794 5790 5787 5783 5779
5811 5812 5813 5813 5814 5815 5815 5816 5816 5817 5817 5818 5818 5818 5818 5818 5818 5818 5817 5817 5817 5816 5815 5814 5813 5812 5811 5809 5807 5806 5804 5802 5800 5798 5795 5792 5789 5785 5782 5778 5774 5770 5767